Regional Weather Roundup
Issued by NWS

Home | Current Version | Previous Version | Graphics & Text | Print | Product List | Glossary On
Versions: 1 2 3 4 5 6 7 8 9 10 11 12 13 14 15 16 17 18 19 20 21 22 23 24 25 26 27 28 29 30 31 32 33 34 35 36 37 38 39 40 41 42 43 44 45 46 47 48 49 50
000
ASUS45 KTFX 290410
RWRMT
MONTANA REGIONAL WEATHER ROUNDUP
NATIONAL WEATHER SERVICE GREAT FALLS MT
1000 PM MDT THU APR 28 2016

NOTE: "FAIR" INDICATES FEW OR NO CLOUDS BELOW 12000 FEET WITH NO
SIGNIFICANT WEATHER AND/OR OBSTRUCTIONS TO VISIBILITY.

MTZ001>007-043-290500-
WEST OF THE DIVIDE

CITY           SKY/WX    TMP DP  RH WIND       PRES   REMARKS
KALISPELL      CLOUDY    45  32  60 NE5       30.02S
MISSOULA       CLOUDY    45  31  58 E7        30.02R
BUTTE          CLOUDY    34  31  88 NE3       30.00R
MULLAN PASS    LGT SNOW  31  31 100 CALM      29.98R FOG
ANACONDA         N/A     36  28  75 N3        30.00R
DEER LODGE       N/A     39  28  65 N9        30.02R
EUREKA           N/A     46  30  53 CALM      30.04R
HAMILTON         N/A     39  36  87 CALM      30.01R
LIBBY            N/A     46  34  61 CALM      30.03S
PLAINS           N/A     47  36  65 CALM      30.01S
THOMPSON FALLS   N/A     48  35  60 CALM      30.05R
$$

MTZ008-052>055-290500-
SOUTHWEST MONTANA

CITY           SKY/WX    TMP DP  RH WIND       PRES   REMARKS
BOZEMAN        CLOUDY    39  26  59 S9        30.01R
DILLON         CLOUDY    35  25  66 NE9       29.97R WCI  28
ENNIS          CLOUDY    36  27  69 N14       30.02R WCI  27
THREE FORKS      N/A     40  33  76 SE3       30.01R
TWIN BRIDGES     N/A     39  25  58 N15       29.96R WCI  30
$$

MTZ009-010-012-014-046-048-049-054-290500-
EAST SLOPES AND CENTRAL MONTANA

CITY           SKY/WX    TMP DP  RH WIND       PRES   REMARKS
CUT BANK       CLOUDY    38  36  92 SW7       30.08S
GREAT FALLS    CLOUDY    39  33  79 NE9       30.06S
HELENA         CLOUDY    41  32  70 NW9       30.02S
CHOTEAU          N/A     37  36  93 N7        30.09S
CONRAD           N/A     40  39  96 CALM      30.10S
$$

MTZ011-013-016-021-045-047-050-051-290500-
NORTH CENTRAL MONTANA

CITY           SKY/WX    TMP DP  RH WIND       PRES   REMARKS
HAVRE          CLOUDY    45  37  73 CALM      30.11R
LEWISTOWN      CLOUDY    37  31  78 E8        30.09R WCI  31
N BAR RANCH    CLOUDY    34  32  93 CALM      30.11S
CHINOOK          N/A     45  37  76 CALM      30.12R
$$

MTZ017>020-022>027-061-062-290500-
NORTHEAST MONTANA

CITY           SKY/WX    TMP DP  RH WIND       PRES   REMARKS
GLASGOW        CLOUDY    43  34  70 E5        30.13S
JORDAN           N/A     43  33  68 S15       30.12S
SIDNEY         CLOUDY    46  32  57 NE3       30.16S
WOLF POINT     CLOUDY    47  34  60 CALM      30.15R
PLENTYWOOD       N/A     45  19  36 NE6       30.17S
POPLAR           N/A     46  30  53 E5        30.16R
SCOBEY           N/A     41  18  39 E5        30.13S
$$

MTZ028>42-056>058-290500-
SOUTHCENTRAL AND SOUTHEAST MONTANA

CITY           SKY/WX    TMP DP  RH WIND       PRES   REMARKS
BAKER          CLOUDY    40  33  76 CALM      30.15R
BILLINGS       MOCLDY    37  34  89 NE6       30.10S
LIVINGSTON     CLOUDY    36  28  73 E15       30.04R WCI  27
MILES CITY     CLOUDY    41  34  76 SE8       30.13S
EKALAKA          N/A     35  31  86 SE2       30.09S
FORSYTH          N/A     41  39  93 SE5       30.14R
LAUREL           N/A     37  25  62 CALM      30.07R
ROUNDUP          N/A     37  33  85 CALM      30.01S
$$

REGIONAL REPORTS...DAKOTAS

CITY           SKY/WX    TMP DP  RH WIND       PRES   REMARKS
WILLISTON      CLOUDY    49  23  36 CALM      30.17R
MINOT          CLOUDY    43  23  45 N3        30.18R
DICKINSON      CLOUDY    41  27  57 E5        30.12S
BEACH          CLOUDY    41  37  87 CALM      30.18S
CROSBY           N/A     37  18  44 E7        30.21R
TIOGA            N/A     39  23  52 E8        30.23R
WATFORD CITY   MOCLDY    41  30  65 E5        30.17S
BISMARCK       CLOUDY    47  32  56 NE7       30.16R
GRAND FORKS    PTCLDY    40  30  67 NE6       30.16R
FARGO          CLOUDY    51  28  41 NE8       30.12R
BUFFALO SD       N/A     38  34  85 W6        30.07S
RAPID CITY     CLOUDY    37  34  89 NW3       30.14R
$$

REGIONAL REPORTS...WYOMING/IDAHO/WASHINGTON

CITY           SKY/WX    TMP DP  RH WIND       PRES   REMARKS
GILLETTE       CLOUDY    34  34 100 CALM      30.10R
SHERIDAN       CLOUDY    37  34  89 CALM      30.10R
BUFFALO WY       N/A    N/A N/A N/A MISG      30.10R
CODY           CLOUDY    34  30  86 NE7       30.06R WCI  28
YELLOWSTONE LA   N/A     31  22  69 VRB3      29.96R
IDAHO FALLS    CLEAR     45  27  49 N13       29.87R
SALMON         CLOUDY    45  34  65 CALM      29.95R
BOISE          MOCLDY    57  34  41 NW15      29.85R
SPOKANE        CLOUDY    57  33  40 E9        29.95R
$$

REGIONAL REPORTS...ALBERTA

CITY           SKY/WX    TMP DP  RH WIND       PRES   REMARKS
EDMONTON       CLEAR     54  30  40 SE16G24   30.00S
CALGARY        MOCLDY    45  30  57 S10       30.04S
LETHBRIDGE     MOCLDY    37  34  87 W6        30.07S
MEDICINE HAT   CLEAR     46  32  57 SE8       30.09S
$$

REGIONAL REPORTS...SASKATCHEWAN

CITY           SKY/WX    TMP DP  RH WIND       PRES   REMARKS
SWIFT CURRENT  CLEAR     41  23  48 SE9       30.12S
REGINA         PTCLDY    48  19  32 E15       30.20R
SASKATOON      MOCLDY    48  25  40 SE10      30.20R
$$



USA.gov is the U.S. government's official web portal to all federal, state and local government web resources and services.